2024-130B

Last updated on Mon Aug 19 2024 00:02:03 GMT+0000 (Coordinated Universal Time)

1 60250U 24130B 24231.68032286 .01685765 23818-5 96505-3 0 9993 2 60250 97.4087 303.6679 0078308 56.6313 93.8276 16.11932460 4837

Satellite not in orbit